Wind_Speed
41 42 42 42 42 43 44 44 46 44 43 41 42 43 43 43 43 43 43 43 43 43 42 43 43 43 43 44 45 45 46 47 48 48 49 49 49 48 49 49 49 49 49 49
43 43 44 44 43 43 43 44 44 44 43 41 43 43 43 43 43 43 43 43 42 42 43 43 43 43 44 44 45 45 46 47 47 48 48 48 48 47 48 47 47 47 47 47
43 43 44 44 41 41 42 43 44 44 43 43 44 43 44 44 44 44 44 43 43 42 43 43 43 44 44 44 45 46 46 46 47 47 47 47 47 46 46 46 46 46 46 46
40 41 44 42 41 41 42 42 43 44 44 45 45 44 44 43 43 44 44 43 43 43 43 43 43 44 44 45 45 45 45 45 46 46 46 46 46 46 46 45 45 45 45 45
39 40 41 40 39 40 41 40 41 42 43 44 44 44 43 43 43 43 43 43 43 42 43 43 43 43 43 44 44 44 44 45 45 46 46 45 45 45 44 44 44 44 43 44
37 38 38 37 37 39 40 40 39 40 41 42 43 43 42 43 43 43 43 43 43 43 43 43 43 43 43 44 44 44 44 45 45 46 45 45 44 44 44 44 44 43 43 44
35 36 36 34 34 35 36 37 38 39 40 41 41 42 42 42 43 43 43 43 43 43 43 44 44 44 44 44 44 44 45 45 45 46 46 45 45 45 44 44 43 43 42 42
33 35 33 33 33 33 33 33 34 36 37 37 38 39 40 40 41 41 41 42 42 42 43 44 44 44 44 44 44 45 45 46 46 46 46 46 46 45 44 43 43 42 42 41
32 32 31 32 33 33 33 33 33 34 35 36 37 38 38 39 39 40 41 41 42 42 43 43 43 44 44 44 44 45 46 46 46 46 45 45 44 43 42 43 43 42 41 41
30 30 30 31 32 33 34 34 34 34 34 35 36 36 37 38 39 40 40 41 42 42 42 43 43 44 44 45 45 45 45 45 45 44 43 42 42 42 42 42 42 41 40 39
30 30 31 31 32 33 33 34 34 35 35 35 36 36 37 38 39 39 40 40 40 41 41 42 42 43 43 44 43 43 43 43 42 42 41 40 40 40 40 40 40 40 38 36
29 29 30 31 31 32 33 34 35 36 37 37 37 37 37 37 37 38 38 39 40 40 41 41 42 42 42 42 41 41 40 39 39 39 39 39 39 39 40 39 37 37 35 34
29 29 30 30 30 31 32 34 35 36 37 37 38 38 37 37 37 37 38 39 39 40 40 40 39 40 40 40 40 39 39 38 38 38 38 38 38 37 36 36 35 33 32 32
29 29 29 29 30 30 31 33 34 35 35 36 36 36 37 37 37 38 38 38 38 38 38 38 37 38 38 38 38 38 38 38 37 36 36 36 36 35 34 33 31 31 31 31
28 29 29 29 29 30 31 32 33 34 34 34 34 34 35 35 36 36 36 36 35 35 35 35 36 36 36 37 37 37 37 36 36 35 34 34 33 32 31 30 29 29 30 29
28 28 27 28 29 29 30 31 32 33 33 33 32 32 32 33 33 33 33 33 33 33 34 34 35 35 36 36 36 36 35 35 34 34 33 33 32 30 30 29 28 27 27 27
26 26 27 27 28 28 28 29 29 30 30 30 30 31 31 31 31 32 32 32 33 33 33 33 34 35 35 35 35 34 34 33 33 33 32 31 30 29 28 28 27 26 26 25
26 26 27 27 27 27 28 28 28 28 28 29 30 30 31 31 32 32 33 33 33 33 34 34 35 35 34 34 34 33 33 33 32 31 30 29 28 27 27 26 26 25 24 23
25 26 27 27 27 27 27 27 27 28 28 29 29 30 30 31 31 32 33 34 34 35 35 35 35 34 34 33 32 32 31 30 29 29 28 28 27 25 25 24 23 23 22 21
24 25 26 26 26 27 27 27 27 28 28 28 29 30 30 31 31 32 33 33 33 34 34 34 34 33 32 31 30 30 29 28 28 27 26 26 25 24 24 23 22 20 19 19
24 24 24 25 25 26 26 26 27 27 28 28 28 28 29 30 30 30 30 31 31 31 31 31 30 30 30 29 29 28 27 26 26 25 25 24 24 23 22 21 20 18 18 17
23 23 24 24 24 24 25 25 26 26 26 27 27 27 27 27 28 28 28 28 28 28 28 27 27 27 27 27 27 26 26 25 24 24 23 23 22 21 20 19 18 17 16 15
22 23 23 23 23 23 24 24 25 25 25 25 25 24 24 24 24 25 25 25 26 26 26 25 25 25 25 24 24 23 23 23 23 22 22 21 21 20 18 17 16 15 14 13
21 21 22 22 22 22 22 23 23 22 22 22 22 22 22 22 22 22 23 23 23 24 24 23 23 23 23 23 22 22 22 22 21 20 20 20 19 18 17 16 15 14 13 12
19 20 20 20 20 20 20 20 20 20 20 20 20 20 20 20 20 20 21 21 21 21 22 22 22 22 22 21 21 20 20 20 19 19 18 18 17 16 15 14 14 13 12 12
18 18 18 17 18 18 18 18 18 18 18 18 18 19 19 19 19 19 19 19 19 19 19 19 19 20 20 19 19 18 17 17 17 17 16 15 15 14 13 12 12 12 11 11
17 17 17 16 16 16 16 17 17 17 17 17 17 18 18 18 18 18 18 18 18 17 17 17 17 17 17 17 16 16 16 16 15 15 14 13 12 12 11 11 10 10 10 10
Wind_Direction
249 249 250 251 251 251 252 253 254 256 257 259 261 261 261 262 263 264 265 267 269 270 271 272 273 273 274 275 276 277 278 279 281 281 283 283 284 284 284 284 284 284 284 283
250 250 251 252 252 252 253 254 255 255 255 256 259 261 261 262 263 264 266 267 268 269 271 272 273 273 273 274 276 276 277 279 281 282 283 283 283 284 285 285 285 285 285 284
252 252 253 253 254 255 255 255 257 257 257 256 258 260 261 262 263 264 265 267 268 269 270 271 272 272 273 274 275 276 277 279 280 282 284 284 284 285 286 286 287 286 286 286
255 253 254 256 255 255 257 257 259 259 258 258 259 259 261 262 263 265 266 266 267 268 269 270 270 271 273 274 276 277 278 280 282 284 284 285 285 285 286 287 287 287 287 287
256 256 257 257 258 258 258 258 260 261 260 259 260 261 262 262 264 266 266 266 267 267 268 269 270 271 273 274 277 279 280 281 283 285 285 285 285 286 287 287 287 288 287 288
257 258 259 259 259 260 260 261 260 262 262 260 260 262 263 263 265 266 266 266 267 268 268 270 271 273 274 275 277 279 280 282 284 286 286 286 286 287 287 287 287 288 288 288
259 260 260 261 261 260 260 261 262 263 264 262 261 263 263 263 265 266 266 267 268 268 269 271 273 274 275 276 278 279 280 282 284 286 286 286 286 286 287 286 287 287 287 288
258 260 261 261 260 259 260 261 263 264 265 265 264 263 263 263 265 267 267 267 268 270 271 272 274 275 276 277 278 280 281 283 284 285 286 286 286 286 286 286 286 286 287 287
258 260 260 261 261 260 261 262 263 264 265 266 265 264 264 264 266 267 267 268 269 270 271 273 274 275 277 278 279 281 282 283 284 285 285 285 285 285 285 286 286 286 288 287
258 258 259 259 260 261 262 264 265 266 266 267 266 265 266 266 267 268 269 269 270 271 272 274 275 276 277 278 279 281 282 283 283 284 284 285 285 285 286 286 286 286 287 288
259 260 260 259 261 262 263 264 265 266 267 267 266 266 267 268 269 270 270 271 272 273 274 274 276 276 277 279 280 281 282 282 283 284 285 285 286 286 287 287 287 286 286 286
261 262 262 261 262 262 263 264 266 268 269 268 268 268 268 268 269 270 270 271 272 273 274 275 275 276 277 279 280 281 282 283 284 285 286 287 287 288 288 288 287 286 284 284
261 261 263 263 263 264 266 267 267 267 268 269 270 270 270 269 270 271 271 271 272 272 273 274 274 275 276 278 280 282 283 284 285 285 287 288 288 288 288 287 286 284 282 284
261 263 264 265 265 267 269 270 269 269 269 270 270 270 269 269 270 271 272 272 272 272 273 274 274 274 276 278 280 282 283 285 286 286 287 288 288 289 289 287 284 282 282 283
263 265 266 266 267 268 270 271 271 271 271 271 269 269 268 269 270 271 272 272 274 274 275 275 275 276 277 279 281 282 284 284 285 286 287 288 288 288 288 286 285 283 282 281
265 265 267 269 269 270 271 271 272 272 272 271 270 270 270 270 270 270 271 273 274 276 277 277 277 278 279 280 281 282 283 284 285 286 286 287 286 286 286 286 286 285 284 281
267 267 269 271 272 272 273 273 273 273 272 272 272 272 272 272 272 272 273 275 276 277 278 278 279 280 280 280 281 282 283 283 284 285 285 285 285 284 285 285 286 285 283 281
269 271 273 274 273 274 274 275 275 275 274 273 272 274 274 274 274 273 273 274 276 278 279 280 280 281 280 280 281 281 282 283 284 283 283 283 284 284 284 284 284 284 281 279
273 275 276 276 275 274 274 275 275 275 276 275 274 274 274 274 274 273 273 275 276 277 278 279 280 280 279 279 280 281 281 281 282 282 282 282 282 282 283 282 282 282 280 278
275 276 277 277 276 275 275 275 275 276 276 277 276 275 274 274 274 274 274 275 277 278 278 278 278 279 279 279 280 280 280 279 280 279 280 279 280 280 281 280 280 279 278 277
278 278 277 277 277 277 276 276 277 277 278 279 278 277 276 275 275 275 277 278 278 279 278 278 278 278 279 279 279 279 278 278 277 278 278 278 279 279 278 277 276 275 275 275
280 279 280 280 281 281 280 280 280 280 281 281 280 278 278 278 278 278 279 279 278 279 279 280 280 280 280 279 278 276 276 276 277 277 277 277 277 276 275 273 272 272 273 272
282 282 281 282 282 282 282 282 282 282 281 281 281 280 280 280 280 280 281 281 280 279 279 280 281 281 280 279 277 275 275 276 276 275 275 274 274 273 270 268 266 266 267 267
284 285 284 283 283 283 284 284 284 283 282 282 281 280 281 281 282 282 283 283 283 281 280 280 280 279 279 278 277 276 276 275 274 273 272 271 270 268 264 262 260 260 258 257
284 286 286 285 284 285 286 285 284 284 284 283 283 282 283 284 285 285 286 286 286 284 282 281 279 278 279 278 277 276 275 273 271 270 269 267 265 262 259 256 253 250 249 249
286 289 289 289 288 288 288 288 287 287 287 287 287 285 284 285 286 288 289 289 288 287 286 285 281 279 278 277 275 275 275 273 271 268 266 262 259 256 253 248 244 242 242 241
287 288 289 290 290 291 291 292 291 289 289 289 289 288 288 287 288 289 290 290 288 286 286 286 284 283 280 276 273 273 273 271 268 263 259 256 252 247 243 238 235 234 234 233
Height
5545 5547 5550 5553 5556 5558 5559 5561 5563 5567 5570 5574 5572 5572 5573 5574 5575 5576 5577 5578 5578 5578 5579 5579 5579 5578 5578 5577 5576 5575 5573 5571 5569 5567 5564 5561 5558 5554 5551 5548 5544 5541 5538 5535
5534 5537 5538 5541 5545 5547 5549 5550 5552 5554 5559 5562 5560 5560 5562 5563 5564 5565 5566 5566 5567 5567 5567 5567 5567 5567 5566 5565 5564 5563 5562 5560 5557 5555 5552 5549 5546 5542 5539 5535 5532 5529 5526 5522
5524 5526 5527 5531 5537 5537 5538 5540 5541 5543 5548 5549 5549 5550 5551 5552 5553 5554 5555 5555 5556 5556 5556 5556 5555 5555 5554 5554 5552 5551 5549 5548 5545 5543 5540 5537 5533 5530 5527 5523 5520 5517 5513 5510
5513 5516 5517 5525 5526 5527 5528 5530 5530 5532 5535 5537 5538 5539 5540 5542 5542 5543 5544 5545 5545 5545 5545 5544 5544 5543 5543 5542 5541 5539 5537 5536 5533 5531 5528 5525 5522 5518 5515 5512 5508 5505 5502 5498
5503 5504 5507 5514 5516 5516 5517 5519 5521 5521 5524 5525 5526 5528 5530 5531 5531 5531 5532 5533 5533 5534 5533 5533 5532 5532 5531 5530 5529 5527 5525 5523 5521 5518 5515 5513 5510 5506 5503 5500 5497 5494 5490 5487
5494 5495 5498 5505 5505 5505 5507 5509 5511 5510 5512 5513 5514 5517 5520 5519 5520 5520 5521 5521 5521 5522 5522 5521 5521 5520 5519 5518 5517 5515 5513 5511 5509 5506 5503 5500 5498 5495 5492 5488 5485 5482 5479 5476
5485 5485 5488 5494 5495 5495 5498 5499 5499 5499 5500 5502 5504 5506 5508 5508 5508 5509 5509 5510 5510 5510 5510 5509 5509 5508 5507 5506 5505 5503 5501 5499 5497 5494 5491 5488 5486 5483 5480 5477 5474 5472 5469 5466
5477 5478 5484 5484 5484 5486 5487 5487 5488 5489 5490 5492 5494 5495 5496 5496 5497 5497 5498 5498 5498 5498 5498 5497 5496 5496 5495 5494 5492 5491 5489 5487 5485 5482 5479 5476 5474 5471 5468 5465 5463 5460 5458 5455
5469 5473 5473 5474 5474 5476 5477 5478 5479 5480 5481 5482 5483 5484 5485 5486 5486 5486 5486 5486 5486 5486 5486 5485 5484 5483 5483 5481 5480 5478 5477 5474 5472 5470 5467 5464 5461 5459 5456 5453 5451 5449 5446 5444
5461 5463 5464 5465 5465 5467 5468 5469 5470 5470 5471 5472 5473 5473 5474 5475 5475 5475 5475 5475 5475 5474 5474 5474 5473 5471 5470 5469 5468 5466 5464 5462 5460 5457 5455 5452 5449 5447 5444 5442 5439 5437 5434 5432
5452 5454 5455 5456 5457 5457 5458 5459 5460 5461 5461 5462 5462 5463 5463 5464 5464 5464 5464 5463 5463 5463 5462 5462 5461 5460 5458 5457 5456 5454 5452 5450 5448 5446 5443 5441 5438 5436 5433 5431 5427 5425 5423 5421
5444 5446 5446 5448 5448 5449 5449 5450 5450 5451 5452 5452 5452 5452 5452 5453 5452 5452 5452 5452 5452 5451 5451 5450 5449 5448 5447 5445 5444 5442 5441 5439 5437 5434 5432 5430 5428 5425 5422 5419 5417 5414 5412 5410
5436 5437 5438 5439 5439 5440 5440 5440 5440 5440 5441 5441 5441 5441 5441 5441 5441 5441 5441 5441 5440 5440 5439 5438 5438 5437 5436 5434 5433 5431 5430 5428 5426 5424 5421 5419 5417 5414 5412 5410 5407 5405 5403 5401
5428 5429 5430 5430 5431 5431 5431 5431 5430 5430 5430 5431 5431 5431 5430 5431 5431 5431 5430 5430 5429 5429 5428 5427 5427 5426 5425 5423 5422 5420 5419 5417 5415 5413 5411 5409 5406 5404 5402 5400 5399 5397 5395 5393
5421 5421 5422 5422 5422 5422 5422 5421 5421 5421 5420 5420 5420 5420 5420 5420 5420 5420 5419 5419 5419 5418 5417 5416 5416 5415 5414 5412 5411 5410 5408 5406 5405 5403 5401 5399 5397 5395 5393 5391 5390 5388 5387 5385
5413 5413 5414 5414 5413 5413 5412 5412 5412 5411 5411 5410 5410 5410 5410 5409 5409 5409 5409 5409 5408 5408 5407 5406 5405 5404 5403 5402 5401 5399 5398 5396 5395 5393 5391 5390 5388 5386 5384 5383 5381 5380 5378 5377
5406 5406 5406 5405 5405 5404 5404 5403 5402 5402 5401 5401 5401 5400 5400 5400 5400 5400 5399 5399 5398 5397 5397 5396 5395 5394 5392 5391 5390 5389 5388 5387 5385 5383 5382 5381 5379 5377 5376 5374 5373 5372 5370 5369
5398 5398 5398 5397 5397 5396 5395 5394 5393 5393 5392 5392 5392 5391 5391 5391 5390 5390 5390 5389 5388 5388 5387 5386 5385 5383 5382 5381 5380 5379 5378 5377 5376 5374 5373 5372 5370 5369 5368 5366 5365 5364 5363 5362
5391 5390 5390 5389 5388 5388 5387 5386 5385 5384 5384 5383 5383 5382 5381 5381 5381 5380 5380 5379 5378 5378 5377 5375 5374 5373 5372 5371 5370 5369 5368 5367 5366 5365 5364 5363 5362 5361 5360 5359 5358 5356 5355 5355
5384 5383 5382 5381 5380 5379 5379 5378 5377 5376 5375 5374 5373 5373 5372 5371 5371 5370 5370 5369 5368 5367 5366 5365 5364 5363 5362 5361 5360 5360 5359 5358 5358 5357 5356 5355 5354 5353 5352 5351 5351 5350 5349 5349
5377 5376 5375 5374 5373 5372 5371 5370 5369 5368 5367 5365 5364 5363 5363 5362 5361 5360 5360 5359 5358 5357 5356 5355 5354 5353 5352 5351 5351 5350 5350 5349 5349 5348 5348 5347 5346 5346 5345 5345 5344 5344 5343 5343
5370 5369 5368 5366 5365 5364 5363 5361 5360 5359 5358 5357 5355 5354 5353 5352 5352 5351 5350 5349 5349 5347 5347 5346 5344 5344 5343 5342 5342 5341 5341 5341 5341 5340 5340 5339 5339 5339 5338 5338 5338 5338 5338 5338
5363 5362 5360 5359 5358 5356 5355 5354 5352 5351 5350 5348 5347 5346 5345 5344 5343 5343 5342 5341 5340 5339 5338 5337 5336 5335 5334 5334 5333 5333 5333 5333 5333 5332 5332 5332 5332 5332 5332 5332 5333 5333 5333 5333
5356 5355 5353 5352 5351 5349 5348 5346 5345 5343 5342 5341 5340 5339 5338 5337 5336 5335 5334 5333 5332 5331 5330 5329 5328 5327 5327 5326 5326 5325 5325 5325 5325 5325 5325 5325 5325 5326 5326 5327 5327 5328 5329 5329
5350 5348 5347 5345 5344 5343 5341 5340 5338 5337 5336 5334 5333 5332 5331 5330 5330 5329 5327 5326 5325 5323 5322 5321 5321 5320 5319 5319 5318 5318 5318 5318 5318 5318 5318 5319 5319 5320 5320 5321 5322 5323 5324 5325
5344 5342 5341 5339 5338 5337 5335 5334 5333 5331 5330 5329 5327 5326 5325 5324 5323 5322 5321 5319 5318 5317 5316 5315 5314 5313 5312 5312 5312 5312 5311 5311 5312 5312 5312 5313 5313 5314 5315 5316 5317 5319 5320 5321
5338 5337 5336 5334 5333 5332 5330 5329 5328 5326 5325 5323 5322 5321 5319 5318 5317 5316 5315 5313 5312 5311 5310 5309 5308 5307 5306 5306 5306 5306 5305 5306 5306 5306 5307 5308 5309 5310 5311 5312 5314 5315 5316 5317